Simultaneous Nadir Overpasses (SNOs) Predictions

Prediction of SNOs between LANDSAT-8 and NOAA-19 Satellite Orbit:

Table of predicted SNOs for the next 14.0 days since TLE Epoch: 11/3/2018
Index Date (LANDSAT-8) Time (LANDSAT-8) Lat,Lon (LANDSAT-8) SZA (LANDSAT-8 ) Date (NOAA-19) Time (NOAA-19) Lat,Lon (NOAA-19) SZA (NOAA-19 ) Distance(km) Time Diff (sec)
1 11/04/2018 23:05:59 -78.15, 29.76 85.62 11/04/2018 23:04:57 -78.14, 29.73 85.66 1.70 62
2 11/04/2018 23:55:26 78.11,-162.82 94.33 11/04/2018 23:55:54 78.09,-162.71 94.33 3.25 28
3 11/07/2018 04:39:42 78.18, 126.47 95.09 11/07/2018 04:38:30 78.28, 125.59 95.10 22.66 72
4 11/07/2018 05:29:11 -78.11, -66.26 85.01 11/07/2018 05:29:28 -78.12, -66.22 84.98 2.07 17
5 11/09/2018 11:02:53 78.13, 30.43 95.68 11/09/2018 11:02:57 78.14, 30.41 95.68 0.62 4
6 11/11/2018 16:36:38 -78.13, 126.99 83.71 11/11/2018 16:36:29 -78.14, 127.09 83.70 2.36 9
7 11/13/2018 22:10:21 78.15,-136.35 96.91 11/13/2018 22:10:00 78.15,-136.28 96.91 1.53 21
8 11/13/2018 22:59:49 -78.12, 31.15 83.13 11/13/2018 23:01:00 -78.13, 31.09 83.10 1.64 71
9 11/16/2018 03:44:05 -78.19, -39.59 82.48 11/16/2018 03:43:31 -78.16, -39.64 82.52 3.47 34




NCC Satellite Simultaneous Nadir Overpasses (SNOs) Prediction Service
